sat.trackr.live / text

‹ back to catalog

STARLINK-31232

NORAD 58831 · 2024-017F

PAYLOAD ACTIVE UNKNOWN

§ Identity

Operator
Country
US
Launch date
2024-01-24
Launch site
AFWTR
Launch vehicle
Mass (kg)
RCS (m²)

Purposes: comms

External: N2YO · Heavens-Above · Gunter

§ Orbital elements

Epoch: 2026-09-20T14:23:51.956160Z

Period
94.01 min
Inclination
53.1618°
Eccentricity
0.0001045
Mean motion
15.31696342 rev/d
Perigee alt
470.0 km
Apogee alt
471.5 km
Semi-major
6,848.9 km
B*
-3.8938e-5
RAAN
17.1529°
Arg perigee
89.8337°
Mean anomaly
270.2784°
Rev number
14,992

§ Raw data

STARLINK-312321 58831U 24017F   26263.59990690 -.00001573  00000+0 -38938-4 0  99972 58831  53.1618  17.1529 0001045  89.8337 270.2784 15.31696342149929

JSON: /api/v1/satellites/58831 · /tle

For live sub-satellite position, see the globe view (requires WebGL).

§ Visibility from observer

Set your observer location to see the next 7 days of passes ≥ 10°. The values pass through the URL so the page stays shareable.

No JS? Fill the form by hand. The geolocation button needs JavaScript.